GFSFLT2_prec_cthk_021.txt.gz
RH
22 21 20 21 22 21 15 12 13 18 23 24 18 19 18 20 23 25 26 28 28 26 25 25 27 28 28 30 32 35 40 47
21 21 21 20 14 12 10 10 14 19 20 17 15 16 16 17 19 20 20 18 14 12 15 19 22 27 23 21 24 30 38 42
23 20 18 15 13 13 12 12 13 14 17 17 19 19 20 23 23 21 18 14 13 14 15 16 18 16 15 16 19 23 31 39
22 19 17 16 17 18 17 17 19 21 23 24 25 25 25 26 27 26 25 24 22 21 20 19 18 17 17 17 18 19 23 29
23 23 22 22 24 24 24 21 22 25 27 28 30 30 31 32 33 32 32 31 31 30 30 28 25 24 23 22 21 20 20 20
28 30 28 27 26 28 30 31 30 32 34 37 37 38 38 39 39 39 38 38 37 36 35 35 34 33 30 29 27 25 24 23
33 32 29 31 33 33 33 34 36 37 38 39 40 41 42 43 43 43 42 41 41 41 41 41 40 40 38 36 34 32 31 29
35 37 34 35 36 35 37 38 40 40 40 41 41 42 42 42 42 43 43 43 43 43 43 43 44 44 43 41 40 39 37 36
40 44 40 39 40 41 42 43 43 42 41 42 42 42 42 42 42 43 43 43 43 44 44 45 45 45 45 45 44 44 43 42
43 46 45 46 46 46 48 49 48 46 45 46 46 46 46 44 44 44 45 45 45 46 47 47 47 48 48 48 48 48 48 47
45 50 49 48 50 50 51 55 54 54 53 54 52 50 50 49 49 48 48 48 48 49 49 49 49 50 50 50 52 52 51 50
46 49 48 49 50 52 57 57 57 58 58 59 57 55 55 51 50 49 49 49 50 50 51 51 51 51 51 51 52 54 55 55
46 51 52 52 55 58 60 60 60 60 60 58 61 61 60 59 54 50 48 49 52 52 52 53 53 56 55 54 53 54 55 55
53 54 56 61 61 60 61 60 59 60 60 59 59 58 56 53 52 50 49 49 49 50 54 53 55 58 56 58 57 55 58 60
58 61 64 63 60 58 59 60 59 59 60 62 61 58 59 58 57 56 55 54 52 53 54 57 57 59 62 62 61 56 60 58
58 59 59 61 61 61 62 62 62 62 62 62 59 60 58 58 57 54 51 51 49 52 55 54 59 61 62 64 61 60 61 61
59 61 64 66 66 67 66 66 67 67 66 60 57 56 55 52 50 48 44 43 43 45 48 48 52 57 63 71 64 65 64 64
64 66 68 67 68 69 71 76 76 69 68 64 61 58 52 50 48 44 42 42 41 41 43 47 49 56 59 66 68 69 69 68
68 68 71 77 76 79 80 74 70 65 61 55 52 48 45 43 42 41 40 36 36 38 45 49 54 59 64 65 68 76 78 85
65 69 69 72 72 68 66 65 62 58 56 56 54 51 47 45 46 44 43 45 47 46 51 59 60 67 72 76 80 84 92 91

GFSFLT2_prec_cthk_024.txt.gz
RH
24 18 16 16 17 15 10 10 11 15 19 22 17 16 16 17 20 23 25 26 27 27 26 25 26 27 28 30 30 31 34 38
22 20 18 16 13 12 10 10 13 16 19 18 17 17 18 20 22 22 22 21 16 13 15 17 19 22 24 19 16 18 25 30
22 23 19 16 15 15 14 14 16 18 19 21 23 30 29 30 29 29 28 25 23 20 17 16 15 15 15 15 16 24 24 31
21 18 18 17 17 20 21 20 25 25 27 26 33 30 31 32 31 31 31 30 29 30 29 29 27 26 24 20 24 21 24 26
24 23 21 22 30 30 31 31 32 34 31 34 36 36 40 42 43 42 43 38 39 37 35 36 33 32 33 30 29 26 29 28
28 28 27 28 32 35 38 39 40 41 43 39 44 48 50 49 52 51 49 48 45 45 45 40 39 39 38 37 36 36 38 36
34 35 33 34 36 36 37 40 45 46 47 46 42 47 48 47 48 47 47 47 48 49 49 48 47 43 42 41 41 42 39 41
39 41 42 39 40 40 41 43 48 48 50 50 45 44 49 48 48 48 47 47 47 48 49 47 47 46 45 43 42 45 44 41
44 46 47 43 44 44 46 49 49 54 54 48 48 48 47 46 50 49 49 48 46 46 46 45 45 47 45 45 45 46 46 44
44 47 50 47 47 49 50 53 51 53 51 52 53 55 53 52 54 52 50 49 49 49 49 48 47 46 45 46 46 47 47 46
46 48 52 49 47 50 51 53 55 58 57 59 58 57 58 57 56 56 55 52 49 48 48 48 48 49 48 47 46 45 46 48
46 51 54 52 53 54 55 60 60 59 60 60 59 54 54 53 52 51 53 54 54 53 52 51 51 49 48 48 48 48 47 47
47 54 55 56 60 61 65 65 62 60 60 59 56 56 56 56 55 54 55 58 59 59 59 60 58 58 55 53 51 51 51 50
49 54 58 60 62 65 65 64 64 63 63 65 65 62 62 62 61 59 60 59 59 60 59 57 59 61 61 61 57 55 53 50
55 59 61 63 63 64 65 67 67 67 68 68 69 70 69 65 60 57 55 54 54 54 54 56 57 56 61 62 59 55 60 60
58 60 60 59 62 64 65 66 68 68 68 72 77 75 68 65 59 55 50 50 51 48 49 49 53 50 56 57 57 59 64 66
58 60 60 62 62 64 64 72 82 78 73 72 72 69 64 60 56 47 45 46 45 46 47 49 49 49 49 53 56 57 58 69
62 64 65 64 63 63 68 67 66 63 62 60 55 52 49 50 51 48 46 44 43 42 41 41 43 44 45 48 50 55 58 67
64 66 67 66 68 69 63 61 59 57 55 52 50 49 50 49 44 41 40 36 35 33 35 39 44 48 50 54 58 61 65 68
66 67 67 70 69 64 59 54 54 54 54 54 51 45 42 40 37 36 37 39 42 44 46 50 54 57 60 63 67 68 72 75

GFSFLT2_prec_cthk_027.txt.gz
RH
28 22 16 15 16 14 10 10 13 16 20 22 20 16 16 17 18 20 22 23 23 21 19 18 19 20 21 23 26 26 26 40
30 24 26 23 15 12 11 11 13 16 20 21 19 21 22 23 24 26 26 25 23 19 17 16 15 14 15 14 14 13 19 28
27 34 28 25 26 19 17 15 16 19 21 21 25 40 39 39 32 29 28 28 28 27 27 27 27 25 24 21 18 24 29 31
33 29 25 21 26 26 29 29 34 34 38 38 48 43 43 38 40 40 39 39 36 35 34 33 33 40 40 36 35 38 31 35
34 23 23 27 31 35 43 45 43 47 42 42 49 49 55 56 58 56 58 52 52 52 49 47 48 44 42 43 41 40 41 42
33 31 27 28 34 42 43 45 50 50 56 47 53 53 55 55 56 55 53 58 55 53 53 52 48 48 46 44 43 44 44 47
43 37 33 35 36 44 44 46 53 56 58 59 51 53 57 55 52 50 53 52 52 52 52 51 53 52 49 47 47 46 46 46
45 46 43 41 43 45 47 52 56 58 60 59 54 53 54 53 54 53 54 53 53 51 49 49 48 49 49 46 45 44 46 48
53 49 47 46 45 48 51 55 52 58 59 55 55 55 58 58 58 57 59 58 54 54 52 50 50 50 48 46 43 41 42 44
55 53 51 50 50 52 54 55 56 61 64 63 61 59 57 56 57 57 58 54 56 56 55 54 53 52 50 48 45 42 41 41
57 57 57 57 56 54 54 58 62 66 68 66 65 61 57 57 57 56 56 54 53 54 54 57 58 58 57 52 48 45 44 42
50 55 61 60 59 58 61 65 67 70 69 66 63 63 62 62 61 62 62 62 60 61 61 61 60 59 58 57 54 52 49 48
53 56 58 59 65 68 68 70 72 71 69 68 68 69 68 67 65 67 67 66 63 59 60 61 59 61 62 65 62 57 54 52
49 54 58 62 65 66 66 67 69 69 71 69 71 70 71 76 74 78 74 68 61 56 55 54 53 55 59 64 64 60 62 56
55 59 61 64 65 68 67 68 70 70 69 68 73 80 79 75 68 63 62 56 50 50 51 52 52 50 57 64 66 64 65 63
60 61 63 62 62 62 64 67 70 70 70 70 67 62 60 59 57 55 53 51 48 52 54 53 55 48 51 57 62 67 69 68
57 61 63 61 61 63 66 69 68 66 68 64 58 55 54 52 51 48 46 46 45 45 44 45 45 44 43 44 43 45 52 56
57 59 61 62 62 64 65 64 65 66 63 55 54 54 53 49 46 44 43 45 48 47 45 45 42 43 44 47 50 49 53 57
57 59 61 63 62 61 61 59 56 55 56 57 57 50 45 42 40 40 43 42 42 42 42 43 45 46 47 50 53 57 60 61
56 55 54 54 56 55 56 56 57 59 60 58 52 44 41 43 46 45 44 42 48 50 52 52 53 56 58 62 65 68 71 72

GFSFLT2_prec_cthk_030.txt.gz
RH
19 19 17 14 13 12 8 8 11 13 16 20 19 18 18 18 20 22 24 24 22 20 18 15 14 13 12 14 15 14 14 29
28 23 18 19 18 11 10 10 12 14 16 17 21 28 28 29 28 27 27 27 26 26 25 25 25 25 23 19 16 15 20 24
33 34 28 23 20 18 19 17 23 22 25 26 36 36 43 40 38 40 40 39 37 34 33 32 31 32 34 33 32 33 33 34
31 29 24 21 28 25 30 31 31 32 36 37 49 45 44 45 48 49 48 46 45 46 44 42 41 41 40 41 40 40 38 34
35 26 21 31 34 34 44 46 46 47 50 47 47 48 56 53 52 51 50 47 51 50 47 50 49 46 42 42 43 41 39 41
38 27 22 26 35 41 43 47 51 54 57 56 54 54 54 50 51 51 48 50 49 49 50 50 49 49 46 46 44 41 41 43
39 34 30 30 33 37 40 45 54 55 54 57 53 50 52 50 51 52 52 52 53 52 49 47 46 47 47 45 41 40 41 40
46 44 39 36 39 42 44 50 51 54 56 53 53 52 56 55 55 54 53 52 50 48 47 45 44 44 43 42 41 39 37 37
47 54 47 46 46 46 48 52 51 51 54 55 55 56 57 54 54 52 52 50 48 45 44 45 44 44 44 44 42 38 36 35
57 60 59 53 53 52 50 50 49 52 58 63 61 62 59 55 54 54 53 51 49 49 48 46 46 47 47 48 48 48 45 40
62 65 62 60 60 57 57 55 55 61 66 68 68 65 62 60 59 59 61 61 61 60 57 59 60 57 53 53 52 55 53 51
55 61 64 68 66 62 63 64 65 68 68 69 66 66 62 61 61 66 69 68 68 67 66 63 62 59 51 49 49 49 53 57
49 54 57 59 61 65 66 68 70 70 68 67 65 66 63 62 61 63 65 63 59 58 57 54 51 51 48 47 43 43 46 54
51 53 56 58 61 67 67 67 68 67 66 66 69 67 64 64 63 59 54 52 49 48 46 43 40 44 48 50 47 41 44 48
54 56 58 61 61 61 62 63 64 64 65 69 69 70 69 65 62 54 49 47 44 42 40 41 44 46 53 59 57 52 50 46
57 58 60 59 55 56 58 60 62 65 67 68 65 63 58 56 53 48 46 44 41 40 42 45 46 44 45 49 49 55 56 50
58 57 56 54 52 55 57 58 59 59 57 54 53 50 50 51 50 49 47 46 44 46 46 46 48 49 49 45 42 42 49 60
55 54 54 56 55 51 49 49 50 51 51 52 53 54 54 53 52 45 42 42 44 47 52 49 48 47 48 49 49 48 45 53
54 51 50 49 49 52 53 55 56 56 57 58 58 56 53 49 47 46 45 45 43 43 43 48 47 46 46 47 52 56 55 56
52 52 52 54 54 55 57 59 60 62 62 59 57 55 52 49 48 47 46 43 45 50 50 48 48 52 55 56 58 66 69 71

GFSFLT2_prec_cthk_036.txt.gz
RH
17 17 17 14 12 9 6 7 9 12 14 14 16 20 23 24 26 29 31 31 31 30 29 30 30 29 29 29 28 25 25 33
17 18 17 14 11 8 8 9 11 14 18 23 26 28 30 35 36 38 38 37 37 38 37 33 33 34 35 35 35 33 35 35
24 22 16 13 15 16 17 19 20 23 27 30 30 34 37 40 40 42 40 39 38 38 36 35 35 35 35 36 36 37 39 40
23 23 16 16 20 25 29 30 33 35 35 35 38 38 40 42 44 45 45 43 43 42 40 39 38 37 38 37 36 37 37 38
24 26 20 19 25 31 35 39 40 39 39 39 40 39 41 43 45 46 46 44 43 40 39 37 37 37 36 37 37 36 35 35
32 31 24 22 30 35 41 43 43 44 45 43 43 40 41 45 47 47 46 43 42 40 41 41 40 39 37 35 32 32 33 33
36 35 29 24 30 35 37 39 43 44 42 45 47 45 46 50 49 49 47 47 47 47 46 44 43 42 41 39 36 34 34 34
41 40 39 38 32 35 42 46 50 54 53 52 53 52 50 49 51 53 54 52 50 48 47 47 46 47 45 45 44 42 40 40
39 42 49 56 54 64 63 60 59 61 60 56 55 55 53 53 57 58 57 55 51 50 48 47 46 45 46 46 45 45 47 47
48 52 63 69 67 61 62 64 62 61 60 57 61 62 62 62 62 60 56 52 53 55 52 50 48 46 44 40 42 42 44 45
57 63 71 78 77 70 65 58 60 63 63 67 70 68 62 60 58 58 55 54 56 56 56 52 47 42 40 38 37 36 35 36
77 80 82 81 81 73 67 65 67 70 72 74 72 69 68 65 63 63 61 61 60 60 54 45 41 38 35 32 29 28 27 28
78 83 79 77 74 64 65 69 68 72 72 69 66 68 68 70 72 68 67 64 60 53 45 42 40 37 32 29 28 29 31 32
70 63 65 64 60 61 64 68 71 71 71 70 70 72 73 74 69 65 63 60 53 48 48 46 42 36 34 35 32 30 32 34
55 56 54 55 57 58 61 64 63 61 62 63 66 65 61 60 58 57 56 54 54 53 48 41 38 40 43 47 45 41 36 32
51 55 59 57 54 53 51 49 50 53 56 58 56 55 55 56 56 56 55 52 45 40 40 42 46 46 43 42 43 44 42 31
52 49 47 45 44 47 49 51 52 54 54 53 53 55 55 55 54 52 46 43 42 42 42 44 45 48 50 48 48 45 48 47
46 46 47 49 51 53 54 56 53 51 51 54 57 57 54 51 51 50 49 48 47 46 48 50 47 48 51 49 48 46 47 48
53 54 54 54 57 60 58 57 56 57 56 57 55 53 52 52 52 51 52 52 49 50 52 55 52 50 50 45 44 47 50 54
66 65 64 63 60 59 60 58 60 59 54 53 49 49 51 54 55 54 52 48 48 45 45 47 49 49 46 48 51 55 60 60

GFSFLT2_prec_cthk_042.txt.gz
RH
26 20 17 16 14 9 6 8 10 14 17 19 24 27 30 31 32 33 34 35 36 37 36 35 35 34 33 32 33 33 33 33
19 17 17 15 10 7 8 10 15 17 22 28 30 32 32 33 35 35 36 38 40 40 39 38 36 36 35 34 34 34 33 35
18 18 17 13 8 8 11 14 17 24 31 33 34 34 33 34 36 37 38 40 40 42 41 38 38 39 40 39 37 35 35 36
21 21 16 13 13 15 17 21 29 32 35 36 37 35 36 38 40 43 44 44 43 42 42 43 43 44 45 46 45 45 43 38
23 19 14 16 19 23 26 30 35 36 38 42 45 48 48 49 48 48 48 46 44 45 47 47 48 47 45 45 46 46 46 44
29 24 17 21 25 29 34 36 39 40 46 52 52 54 51 49 47 47 47 48 47 47 49 50 50 49 48 48 47 45 45 46
36 32 30 30 30 34 39 43 48 55 58 57 56 53 53 51 50 52 49 49 50 50 51 50 50 49 48 48 48 47 46 44
46 45 41 43 45 45 47 54 62 65 68 65 59 57 56 58 56 55 52 54 58 57 57 55 53 52 51 50 49 46 45 43
51 54 48 51 55 60 64 77 76 76 72 64 59 59 59 60 59 57 59 60 60 60 61 59 57 57 56 54 51 48 43 37
53 63 73 75 81 81 86 83 82 84 82 66 64 63 63 63 64 63 61 60 62 64 67 63 58 56 51 49 45 43 35 32
61 75 82 83 87 88 86 89 87 85 74 69 69 69 65 67 64 62 70 70 78 70 62 57 54 52 49 46 43 40 36 34
67 81 88 93 95 95 93 83 75 72 73 72 69 70 67 64 68 70 64 62 61 58 56 54 49 46 44 42 38 34 30 30
83 90 90 94 88 77 73 69 69 65 63 60 59 57 59 61 61 62 60 55 53 53 52 48 44 39 32 30 30 31 35 34
85 76 71 69 68 64 60 60 59 54 52 52 53 54 55 56 57 54 52 53 52 50 45 40 37 35 33 31 30 29 31 36
63 64 64 62 59 53 49 49 51 55 57 58 59 58 58 56 55 55 55 51 47 42 39 37 34 32 32 34 35 35 34 35
58 59 59 54 55 58 61 63 64 66 66 65 64 62 60 57 53 49 44 40 37 36 34 33 33 34 35 38 41 43 45 42
65 68 67 69 69 69 68 66 70 68 69 64 60 56 53 49 44 37 35 35 34 33 35 35 36 37 37 36 36 38 41 46
73 74 79 76 72 71 71 68 68 66 60 57 53 48 43 38 34 33 33 32 29 30 30 31 32 34 36 37 37 39 41 48
80 80 80 78 76 74 70 68 64 58 54 50 44 39 32 29 30 31 34 34 33 32 30 29 32 37 39 42 45 47 51 54
78 81 81 79 74 68 65 63 57 52 48 42 36 32 30 32 33 35 35 38 38 39 39 39 41 43 49 52 54 56 61 68

GFSFLT2_prec_cthk_045.txt.gz
RH
35 28 23 20 18 12 6 7 11 16 18 22 26 29 33 32 32 33 32 33 34 32 35 34 34 32 31 31 31 30 30 31
28 21 20 18 13 8 8 12 16 19 24 29 32 33 34 34 34 35 36 37 38 37 37 35 34 36 36 36 36 34 31 31
21 20 20 16 10 8 11 15 19 27 31 34 36 36 36 36 42 46 46 45 45 43 41 39 40 40 41 40 39 40 40 39
19 22 20 14 10 12 16 20 26 34 37 37 38 41 43 48 49 49 48 47 47 45 43 44 44 45 46 46 44 43 42 42
25 23 17 18 21 22 26 32 35 38 40 42 46 49 53 52 50 49 49 47 48 46 46 46 46 46 46 46 45 45 44 43
30 20 20 25 29 34 37 40 42 44 47 52 57 61 59 57 53 52 52 50 49 49 49 49 49 49 47 46 45 45 45 43
39 31 28 30 34 38 41 44 46 52 59 66 70 70 65 61 57 55 55 53 53 53 55 55 55 54 52 51 49 48 47 45
49 45 42 41 40 41 46 54 62 63 71 76 81 77 72 68 63 62 58 59 61 58 57 56 58 58 57 53 51 51 48 44
54 58 51 55 58 63 59 66 69 68 75 83 83 82 77 73 64 60 60 60 58 58 63 62 65 64 59 58 52 47 44 40
59 64 70 71 80 82 84 88 83 76 84 85 79 79 72 69 66 68 66 59 63 69 72 63 63 55 51 49 48 44 41 38
61 67 79 90 90 89 90 86 83 82 78 71 71 70 67 68 65 65 62 68 65 63 60 56 51 49 47 46 43 39 35 30
67 72 84 92 93 94 85 85 77 71 68 68 65 61 58 57 58 60 61 61 60 57 54 53 49 44 38 33 30 28 27 27
74 84 92 84 92 81 68 68 62 57 54 53 54 55 57 57 57 56 54 52 50 48 45 40 36 32 29 30 26 24 26 27
84 79 75 67 62 59 56 58 56 57 61 63 63 61 61 59 57 55 54 50 46 42 37 32 28 26 26 30 32 33 33 32
60 60 58 55 55 61 65 66 68 69 68 67 65 63 60 56 52 49 46 40 35 31 29 27 27 27 27 32 34 32 33 31
62 65 65 65 67 71 69 72 69 69 69 67 64 62 57 51 45 38 31 28 26 26 24 23 24 28 27 29 31 35 38 36
69 74 77 80 79 77 78 76 76 74 73 65 61 57 50 42 33 27 27 28 28 27 26 26 25 27 32 32 31 37 40 43
77 79 76 78 80 77 77 78 74 70 65 60 55 48 38 33 31 32 33 33 31 32 32 33 35 36 38 41 41 43 48 53
68 69 72 75 79 81 79 75 69 66 61 55 49 41 34 34 36 38 38 37 38 39 39 39 40 44 47 48 49 52 53 59
68 70 75 78 75 74 73 70 67 61 55 49 41 37 37 38 39 38 41 43 43 40 37 40 42 50 53 52 55 60 65 59